星链-34755 (STARLINK-34755)

导读 | 豆包AI

STARLINK-34755是美国SpaceX公司星链(Starlink)卫星互联网星座的一员,于2025年7月26日发射入轨。星链项目计划在近地轨道部署数万颗卫星,旨在为全球偏远、基础设施匮乏地区提供高速低延迟的宽带互联网接入。 该卫星运行于近地轨道,采用平板设计,搭载霍尔推进器,具备自主避撞能力,寿命末期会主动离轨再入大气层焚毁。作为星链星座扩展的组成部分,它进一步完善了全球卫星互联网的覆盖容量,助力缩小数字鸿沟,但也引发了太空轨道资源和天文观测的相关讨论。

Basic Information
目录编号:
64940
目录名称:
STARLINK-34755
国际标识:
2025-158J
轨道中心:
EARTH
卫星名称:
星链-34755
卫星全名:
星链-34755 (STARLINK-34755)
卫星状态:
在轨 (已飞行231 天)
发射日期:
2025-07-26 UTC
国别 :
美国 (US)
星等 :
--
Orbit Information
数据来源 国际轨道数据 AOE轨道数据
星历时间 2026-03-14T13:08:52+0800
12小时前
查看轨道信息
2026-03-13T09:00:00+0800
1天前
查看轨道信息
半长轴 6941.116km 6941.146km
偏心率 0.0001619 0.0001695
轨道倾角 97.602° 97.602°
近地点辐角 57.556° 52.046°
升交点赤经 299.147° 298.000°
平近点角 302.582° 93.498°
近地点 561.855km 561.832km
远地点 564.103km 564.186km
周期 95.919分钟 95.919分钟
每日圈数 15.012701 15.012603
Detailed Information
固有亮度:
5
最大亮度:
2.5
卫星平台:
Starlink V1.0
覆盖范围:
全球
运营商:
太空探索技术公司
运营商所在国:
美国
制造商(研发单位):
太空探索技术公司
制造商所在国:
美国
使用方式:
暂无
Satellite Introduction
Starlink 计划是 SpaceX 推出的全球卫星互联网项目,通过发射低轨道卫星,为全球尤其是偏远地区提供高速、低延迟的互联网服务。自 2019 年起,Starlink 已部署数千颗卫星,旨在缩小全球数字鸿沟,推动互联网普及。该项目还为军事、航空等行业提供通信支持,带来广泛经济效益。
2D Orbit Map
3D Orbit Map
Orbit Altitude Analysis Chart
Orbit Inclination Analysis Chart
Orbit Comprehensive Analysis Chart
View Comprehensive Chart